Tracking 19847 objects as of 18-Sep-2019
HD Live streaming from Space Station
objects crossing your sky now

SESAT 2 (EXPRESS AM-22)

Track SESAT 2 (EXPRESS AM-22) now!
SESAT 2 (EXPRESS AM-22) is classified as:


NORAD ID: 28134
Int'l Code: 2003-060A
Perigee: 36,017.0 km
Apogee: 36,087.9 km
Inclination: 2.2 °
Period: 1,449.3 minutes
Semi major axis: 42423 km
RCS: 7.9432 m2 (large)
Launch date: December 28, 2003
Source: European Telecommunications Satellite Organization (EUTE)
Launch site: TYURATAM MISSILE AND SPACE COMPLEX (TTMTR)

12 of the 24 transponders are referred to as SESAT-2 (EUTELSAT); 26 C-band, 4 Ku-band.
aabbcc
Your satellite tracking list
Your tracking list is empty




NASA's NSSDC Master Catalog

Two Line Element Set (TLE):
1 28134U 03060A   19259.85764256 -.00000236 +00000-0 +00000-0 0  9998
2 28134 002.2456 087.1995 0008360 081.5189 249.8702 00.99355915057535
Source of the keplerian elements: AFSPC